• In Netherlands
  • List of Countries
  • For 7 days
  • Water Temperature
  • Satellite Maps
  • Weather Map
  • Weather Widgets
  • user-avatar
    Login

    Hourly Weather Jaú

    Today, 26 March, Sunday

    Time Temperature Precipitation Wind Pressure Humidity
    00:00 +23°C° 1 mm 4 mps 757 mmHg 80%
    01:00 +23°C° 0.1 mm 4 mps 757 mmHg 82%
    02:00 +22°C° 0.1 mm 5 mps 757 mmHg 83%
    03:00 +22°C° 0 mm 6 mps 758 mmHg 84%
    04:00 +22°C° 0.1 mm 6 mps 758 mmHg 85%
    05:00 +21°C° 0.1 mm 7 mps 758 mmHg 85%
    06:00 +21°C° 0.1 mm 8 mps 759 mmHg 85%
    07:00 +22°C° 0 mm 7 mps 759 mmHg 81%
    08:00 +22°C° 0 mm 7 mps 760 mmHg 78%
    09:00 +23°C° 0 mm 6 mps 760 mmHg 74%
    10:00 +24°C° 0 mm 6 mps 760 mmHg 71%
    11:00 +24°C° 0 mm 6 mps 760 mmHg 68%
    12:00 +26°C° 0 mm 6 mps 760 mmHg 65%
    13:00 +24°C° 0.2 mm 7 mps 760 mmHg 64%
    14:00 +24°C° 0.2 mm 7 mps 760 mmHg 63%
    15:00 +24°C° 0.2 mm 7 mps 760 mmHg 62%
    16:00 +24°C° 0.2 mm 7 mps 760 mmHg 64%
    17:00 +23°C° 0.2 mm 7 mps 760 mmHg 66%
    18:00 +23°C° 0.2 mm 7 mps 760 mmHg 67%
    19:00 +23°C° 0.1 mm 7 mps 760 mmHg 68%
    20:00 +22°C° 0.1 mm 7 mps 761 mmHg 68%
    21:00 +22°C° 0.1 mm 7 mps 761 mmHg 69%
    22:00 +22°C° 0 mm 7 mps 761 mmHg 68%
    23:00 +22°C° 0 mm 6 mps 761 mmHg 67%

    Tomorrow, 27 March, Monday

    Time Temperature Precipitation Wind Pressure Humidity
    00:00 +22°C° 0 mm 6 mps 761 mmHg 66%
    01:00 +22°C° 0 mm 6 mps 761 mmHg 65%
    02:00 +22°C° 0 mm 6 mps 761 mmHg 64%
    03:00 +21°C° 0 mm 5 mps 761 mmHg 63%
    04:00 +21°C° 0 mm 5 mps 761 mmHg 63%
    05:00 +21°C° 0 mm 5 mps 762 mmHg 62%
    06:00 +21°C° 0 mm 5 mps 762 mmHg 62%
    07:00 +22°C° 0 mm 4 mps 762 mmHg 56%
    08:00 +23°C° 0 mm 4 mps 762 mmHg 50%
    09:00 +25°C° 0 mm 4 mps 763 mmHg 45%
    10:00 +26°C° 0 mm 4 mps 763 mmHg 41%
    11:00 +27°C° 0 mm 4 mps 762 mmHg 37%
    12:00 +27°C° 0 mm 4 mps 762 mmHg 33%
    13:00 +27°C° 0 mm 5 mps 762 mmHg 33%
    14:00 +27°C° 0 mm 5 mps 762 mmHg 33%
    15:00 +27°C° 0 mm 6 mps 761 mmHg 33%
    16:00 +27°C° 0 mm 6 mps 761 mmHg 37%
    17:00 +26°C° 0 mm 6 mps 762 mmHg 40%
    18:00 +24°C° 0 mm 6 mps 762 mmHg 44%
    19:00 +25°C° 0 mm 5 mps 762 mmHg 47%
    20:00 +23°C° 0 mm 5 mps 762 mmHg 49%
    21:00 +23°C° 0 mm 4 mps 763 mmHg 52%
    22:00 +23°C° 0 mm 4 mps 763 mmHg 52%
    23:00 +22°C° 0 mm 3 mps 763 mmHg 52%

    Day after tomorrow, 28 March, Tuesday

    Time Temperature Precipitation Wind Pressure Humidity
    00:00 +23°C° 0 mm 2 mps 762 mmHg 52%
    01:00 +23°C° 0 mm 2 mps 762 mmHg 51%
    02:00 +23°C° 0 mm 2 mps 762 mmHg 50%
    03:00 +23°C° 0 mm 2 mps 761 mmHg 49%
    04:00 +21°C° 0 mm 2 mps 761 mmHg 49%
    05:00 +21°C° 0 mm 2 mps 762 mmHg 49%
    06:00 +21°C° 0 mm 3 mps 762 mmHg 49%
    07:00 +22°C° 0 mm 3 mps 762 mmHg 45%
    08:00 +24°C° 0 mm 3 mps 763 mmHg 41%
    09:00 +25°C° 0 mm 3 mps 763 mmHg 37%
    10:00 +26°C° 0 mm 3 mps 762 mmHg 35%
    11:00 +26°C° 0 mm 2 mps 762 mmHg 33%
    12:00 +27°C° 0 mm 2 mps 762 mmHg 30%
    13:00 +27°C° 0 mm 2 mps 761 mmHg 29%
    14:00 +27°C° 0 mm 2 mps 761 mmHg 28%
    15:00 +28°C° 0 mm 3 mps 760 mmHg 26%
    16:00 +27°C° 0 mm 3 mps 760 mmHg 29%
    17:00 +26°C° 0 mm 3 mps 760 mmHg 31%
    18:00 +26°C° 0 mm 3 mps 760 mmHg 33%
    19:00 +25°C° 0 mm 3 mps 761 mmHg 36%
    20:00 +25°C° 0 mm 3 mps 762 mmHg 39%
    21:00 +25°C° 0 mm 3 mps 762 mmHg 42%
    22:00 +24°C° 0 mm 3 mps 762 mmHg 44%
    23:00 +24°C° 0 mm 3 mps 761 mmHg 47%

    29 March, Wednesday

    Time Temperature Precipitation Wind Pressure Humidity
    00:00 +24°C° 0 mm 2 mps 761 mmHg 49%
    01:00 +23°C° 0 mm 2 mps 760 mmHg 50%
    02:00 +23°C° 0 mm 2 mps 760 mmHg 51%
    03:00 +23°C° 0 mm 2 mps 760 mmHg 52%
    04:00 +23°C° 0 mm 2 mps 760 mmHg 53%
    05:00 +23°C° 0 mm 2 mps 760 mmHg 53%
    06:00 +23°C° 0 mm 2 mps 760 mmHg 54%
    07:00 +23°C° 0.3 mm 1 mps 761 mmHg 51%
    08:00 +24°C° 0.3 mm 1 mps 761 mmHg 47%
    09:00 +25°C° 0.3 mm 1 mps 762 mmHg 44%
    10:00 +26°C° 0.2 mm 2 mps 761 mmHg 40%
    11:00 +27°C° 0.2 mm 2 mps 761 mmHg 36%
    12:00 +28°C° 0.2 mm 3 mps 761 mmHg 32%
    13:00 +28°C° 0 mm 3 mps 760 mmHg 31%
    14:00 +28°C° 0 mm 3 mps 759 mmHg 31%
    15:00 +28°C° 0 mm 3 mps 759 mmHg 31%
    16:00 +28°C° 0 mm 3 mps 759 mmHg 32%
    17:00 +28°C° 0 mm 3 mps 759 mmHg 34%
    18:00 +27°C° 0 mm 3 mps 759 mmHg 35%
    19:00 +27°C° 0 mm 2 mps 760 mmHg 36%
    20:00 +27°C° 0 mm 2 mps 760 mmHg 36%
    21:00 +27°C° 0 mm 2 mps 760 mmHg 37%
    22:00 +26°C° 0 mm 2 mps 760 mmHg 37%
    23:00 +26°C° 0 mm 2 mps 760 mmHg 37%

    30 March, Thursday

    Time Temperature Precipitation Wind Pressure Humidity
    00:00 +26°C° 0 mm 2 mps 759 mmHg 37%
    01:00 +26°C° 0 mm 2 mps 759 mmHg 38%
    02:00 +26°C° 0 mm 2 mps 759 mmHg 39%
    03:00 +26°C° 0 mm 2 mps 759 mmHg 40%
    04:00 +26°C° 0 mm 2 mps 759 mmHg 41%
    05:00 +26°C° 0 mm 2 mps 760 mmHg 41%
    06:00 +25°C° 0 mm 2 mps 760 mmHg 41%
    07:00 +26°C° 0 mm 2 mps 760 mmHg 38%
    08:00 +27°C° 0 mm 2 mps 761 mmHg 36%
    09:00 +28°C° 0 mm 2 mps 761 mmHg 33%
    10:00 +29°C° 0 mm 1 mps 761 mmHg 32%
    11:00 +29°C° 0 mm 1 mps 761 mmHg 31%
    12:00 +28°C° 0 mm 0 mps 760 mmHg 30%
    13:00 +30°C° 0 mm 1 mps 760 mmHg 29%
    14:00 +31°C° 0 mm 2 mps 759 mmHg 29%
    15:00 +31°C° 0 mm 2 mps 759 mmHg 28%
    16:00 +31°C° 0 mm 3 mps 759 mmHg 29%
    17:00 +30°C° 0 mm 3 mps 759 mmHg 30%
    18:00 +30°C° 0 mm 3 mps 759 mmHg 32%
    19:00 +30°C° 0 mm 3 mps 759 mmHg 33%
    20:00 +29°C° 0 mm 3 mps 760 mmHg 34%
    21:00 +29°C° 0 mm 4 mps 760 mmHg 35%
    22:00 +29°C° 0 mm 4 mps 760 mmHg 37%
    23:00 +28°C° 0 mm 4 mps 759 mmHg 38%

    31 March, Friday

    Time Temperature Precipitation Wind Pressure Humidity
    00:00 +28°C° 0 mm 3 mps 759 mmHg 39%
    01:00 +28°C° 0 mm 3 mps 759 mmHg 40%
    02:00 +28°C° 0 mm 3 mps 758 mmHg 40%
    03:00 +28°C° 0 mm 3 mps 758 mmHg 40%
    04:00 +28°C° 0 mm 3 mps 759 mmHg 41%
    05:00 +28°C° 0 mm 3 mps 759 mmHg 41%
    06:00 +27°C° 0 mm 3 mps 759 mmHg 42%
    07:00 +29°C° 0 mm 3 mps 759 mmHg 38%
    08:00 +30°C° 0 mm 3 mps 760 mmHg 35%
    09:00 +31°C° 0 mm 3 mps 760 mmHg 31%
    10:00 +33°C° 0 mm 3 mps 760 mmHg 30%
    11:00 +34°C° 0 mm 3 mps 759 mmHg 28%
    12:00 +34°C° 0 mm 3 mps 759 mmHg 26%
    13:00 +35°C° 0 mm 3 mps 758 mmHg 26%
    14:00 +35°C° 0 mm 3 mps 758 mmHg 26%
    15:00 +35°C° 0 mm 3 mps 757 mmHg 26%
    16:00 +35°C° 0 mm 4 mps 757 mmHg 29%
    17:00 +34°C° 0 mm 5 mps 757 mmHg 31%
    18:00 +33°C° 0 mm 5 mps 758 mmHg 33%
    19:00 +33°C° 0 mm 6 mps 758 mmHg 35%
    20:00 +32°C° 0 mm 6 mps 758 mmHg 37%
    21:00 +30°C° 0 mm 6 mps 758 mmHg 39%
    22:00 +30°C° 0 mm 6 mps 758 mmHg 41%
    23:00 +30°C° 0 mm 6 mps 757 mmHg 42%
    Show more